Year,Month,Day,Hour,Minute,Value (Times are PST for temperature in C)
2010,07,09,00,00,22.60
2010,07,09,00,01,22.50
2010,07,09,00,02,22.40
2010,07,09,00,03,22.40
2010,07,09,00,04,22.30
2010,07,09,00,05,22.20
2010,07,09,00,06,22.10
2010,07,09,00,07,22.00
2010,07,09,00,08,22.00
2010,07,09,00,09,21.90
2010,07,09,00,10,21.90
2010,07,09,00,11,21.80
2010,07,09,00,12,21.80
2010,07,09,00,13,21.80
2010,07,09,00,14,21.80
2010,07,09,00,15,21.70
2010,07,09,00,16,21.70
2010,07,09,00,17,21.70
2010,07,09,00,18,21.60
2010,07,09,00,19,21.60
2010,07,09,00,20,21.60
2010,07,09,00,21,21.60
2010,07,09,00,22,21.60
2010,07,09,00,23,21.60
2010,07,09,00,24,21.50
2010,07,09,00,25,21.40
2010,07,09,00,26,21.40
2010,07,09,00,27,21.40
2010,07,09,00,28,21.40
2010,07,09,00,29,21.40
2010,07,09,00,30,21.30
2010,07,09,00,31,21.30
2010,07,09,00,32,21.30
2010,07,09,00,33,21.20
2010,07,09,00,34,21.20
2010,07,09,00,35,21.10
2010,07,09,00,36,21.00
2010,07,09,00,37,20.90
2010,07,09,00,38,20.90
2010,07,09,00,39,20.80
2010,07,09,00,40,20.80
2010,07,09,00,41,20.80
2010,07,09,00,42,20.70
2010,07,09,00,43,20.70
2010,07,09,00,44,20.70
2010,07,09,00,45,20.60
2010,07,09,00,46,20.60
2010,07,09,00,47,20.60
2010,07,09,00,48,20.50
2010,07,09,00,49,20.50
2010,07,09,00,50,20.50
2010,07,09,00,51,20.40
2010,07,09,00,52,20.40
2010,07,09,00,53,20.40
2010,07,09,00,54,20.40
2010,07,09,00,55,20.40
2010,07,09,00,56,20.40
2010,07,09,00,57,20.40
2010,07,09,00,58,20.40
2010,07,09,00,59,20.40
2010,07,09,01,00,20.40
2010,07,09,01,01,20.40
2010,07,09,01,02,20.40
2010,07,09,01,03,20.40
2010,07,09,01,04,20.40
2010,07,09,01,05,20.40
2010,07,09,01,06,20.40
2010,07,09,01,07,20.40
2010,07,09,01,08,20.30
2010,07,09,01,09,20.30
2010,07,09,01,10,20.30
2010,07,09,01,11,20.30
2010,07,09,01,12,20.30
2010,07,09,01,13,20.30
2010,07,09,01,14,20.30
2010,07,09,01,15,20.30
2010,07,09,01,16,20.30
2010,07,09,01,17,20.30
2010,07,09,01,18,20.30
2010,07,09,01,19,20.30
2010,07,09,01,20,20.30
2010,07,09,01,21,20.30
2010,07,09,01,22,20.30
2010,07,09,01,23,20.30
2010,07,09,01,24,20.30
2010,07,09,01,25,20.30
2010,07,09,01,26,20.30
2010,07,09,01,27,20.30
2010,07,09,01,28,20.30
2010,07,09,01,29,20.30
2010,07,09,01,30,20.30
2010,07,09,01,31,20.30
2010,07,09,01,32,20.30
2010,07,09,01,33,20.30
2010,07,09,01,34,20.30
2010,07,09,01,35,20.30
2010,07,09,01,36,20.30
2010,07,09,01,37,20.30
2010,07,09,01,38,20.30
2010,07,09,01,39,20.30
2010,07,09,01,40,20.30
2010,07,09,01,41,20.30
2010,07,09,01,42,20.30
2010,07,09,01,43,20.30
2010,07,09,01,44,20.20
2010,07,09,01,45,20.20
2010,07,09,01,46,20.20
2010,07,09,01,47,20.20
2010,07,09,01,48,20.20
2010,07,09,01,49,20.20
2010,07,09,01,50,20.20
2010,07,09,01,51,20.20
2010,07,09,01,52,20.10
2010,07,09,01,53,20.10
2010,07,09,01,54,20.10
2010,07,09,01,55,20.10
2010,07,09,01,56,20.10
2010,07,09,01,57,20.10
2010,07,09,01,58,20.10
2010,07,09,01,59,20.10
2010,07,09,02,00,20.10
2010,07,09,02,01,20.10
2010,07,09,02,02,20.10
2010,07,09,02,03,20.10
2010,07,09,02,04,20.00
2010,07,09,02,05,20.00
2010,07,09,02,06,20.00
2010,07,09,02,07,20.00
2010,07,09,02,08,19.90
2010,07,09,02,09,19.90
2010,07,09,02,10,19.90
2010,07,09,02,11,19.90
2010,07,09,02,12,19.90
2010,07,09,02,13,19.90
2010,07,09,02,14,19.90
2010,07,09,02,15,19.90
2010,07,09,02,16,19.90
2010,07,09,02,17,19.80
2010,07,09,02,18,19.80
2010,07,09,02,19,19.80
2010,07,09,02,20,19.80
2010,07,09,02,21,19.80
2010,07,09,02,22,19.70
2010,07,09,02,23,19.70
2010,07,09,02,24,19.60
2010,07,09,02,25,19.60
2010,07,09,02,26,19.60
2010,07,09,02,27,19.50
2010,07,09,02,28,19.50
2010,07,09,02,29,19.40
2010,07,09,02,30,19.40
2010,07,09,02,31,19.40
2010,07,09,02,32,19.40
2010,07,09,02,33,19.40
2010,07,09,02,34,19.40
2010,07,09,02,35,19.40
2010,07,09,02,36,19.40
2010,07,09,02,37,19.40
2010,07,09,02,38,19.40
2010,07,09,02,39,19.40
2010,07,09,02,40,19.40
2010,07,09,02,41,19.40
2010,07,09,02,42,19.40
2010,07,09,02,43,19.30
2010,07,09,02,44,19.30
2010,07,09,02,45,19.40
2010,07,09,02,46,19.30
2010,07,09,02,47,19.30
2010,07,09,02,48,19.30
2010,07,09,02,49,19.20
2010,07,09,02,50,19.20
2010,07,09,02,51,19.20
2010,07,09,02,52,19.20
2010,07,09,02,53,19.20
2010,07,09,02,54,19.20
2010,07,09,02,55,19.20
2010,07,09,02,56,19.20
2010,07,09,02,57,19.20
2010,07,09,02,58,19.20
2010,07,09,02,59,19.20
2010,07,09,03,00,19.20
2010,07,09,03,01,19.30
2010,07,09,03,02,19.30
2010,07,09,03,03,19.30
2010,07,09,03,04,19.30
2010,07,09,03,05,19.30
2010,07,09,03,06,19.30
2010,07,09,03,07,19.30
2010,07,09,03,08,19.30
2010,07,09,03,09,19.30
2010,07,09,03,10,19.30
2010,07,09,03,11,19.30
2010,07,09,03,12,19.30
2010,07,09,03,13,19.30
2010,07,09,03,14,19.30
2010,07,09,03,15,19.30
2010,07,09,03,16,19.30
2010,07,09,03,17,19.20
2010,07,09,03,18,19.20
2010,07,09,03,19,19.20
2010,07,09,03,20,19.20
2010,07,09,03,21,19.20
2010,07,09,03,22,19.20
2010,07,09,03,23,19.10
2010,07,09,03,24,19.10
2010,07,09,03,25,19.10
2010,07,09,03,26,19.00
2010,07,09,03,27,19.00
2010,07,09,03,28,19.00
2010,07,09,03,29,19.00
2010,07,09,03,30,19.00
2010,07,09,03,31,18.90
2010,07,09,03,32,18.90
2010,07,09,03,33,18.90
2010,07,09,03,34,18.90
2010,07,09,03,35,18.90
2010,07,09,03,36,18.80
2010,07,09,03,37,18.80
2010,07,09,03,38,18.80
2010,07,09,03,39,18.80
2010,07,09,03,40,18.80
2010,07,09,03,41,18.80
2010,07,09,03,42,18.80
2010,07,09,03,43,18.80
2010,07,09,03,44,18.70
2010,07,09,03,45,18.70
2010,07,09,03,46,18.70
2010,07,09,03,47,18.70
2010,07,09,03,48,18.70
2010,07,09,03,49,18.60
2010,07,09,03,50,18.60
2010,07,09,03,51,18.60
2010,07,09,03,52,18.50
2010,07,09,03,53,18.50
2010,07,09,03,54,18.40
2010,07,09,03,55,18.40
2010,07,09,03,56,18.40
2010,07,09,03,57,18.40
2010,07,09,03,58,18.40
2010,07,09,03,59,18.40
2010,07,09,04,00,18.40
2010,07,09,04,01,18.40
2010,07,09,04,02,18.40
2010,07,09,04,03,18.30
2010,07,09,04,04,18.30
2010,07,09,04,05,18.30
2010,07,09,04,06,18.30
2010,07,09,04,07,18.30
2010,07,09,04,08,18.30
2010,07,09,04,09,18.30
2010,07,09,04,10,18.30
2010,07,09,04,11,18.30
2010,07,09,04,12,18.30
2010,07,09,04,13,18.30
2010,07,09,04,14,18.30
2010,07,09,04,15,18.30
2010,07,09,04,16,18.30
2010,07,09,04,17,18.20
2010,07,09,04,18,18.20
2010,07,09,04,19,18.20
2010,07,09,04,20,18.20
2010,07,09,04,21,18.10
2010,07,09,04,22,18.10
2010,07,09,04,23,18.10
2010,07,09,04,24,18.10
2010,07,09,04,25,18.00
2010,07,09,04,26,18.00
2010,07,09,04,27,18.00
2010,07,09,04,28,18.00
2010,07,09,04,29,18.00
2010,07,09,04,30,17.90
2010,07,09,04,31,17.90
2010,07,09,04,32,17.90
2010,07,09,04,33,17.90
2010,07,09,04,34,17.90
2010,07,09,04,35,17.90
2010,07,09,04,36,17.90
2010,07,09,04,37,17.80
2010,07,09,04,38,17.80
2010,07,09,04,39,17.80
2010,07,09,04,40,17.80
2010,07,09,04,41,17.80
2010,07,09,04,42,17.70
2010,07,09,04,43,17.70
2010,07,09,04,44,17.70
2010,07,09,04,45,17.70
2010,07,09,04,46,17.70
2010,07,09,04,47,17.70
2010,07,09,04,48,17.70
2010,07,09,04,49,17.70
2010,07,09,04,50,17.70
2010,07,09,04,51,17.70
2010,07,09,04,52,17.70
2010,07,09,04,53,17.70
2010,07,09,04,54,17.70
2010,07,09,04,55,17.70
2010,07,09,04,56,17.70
2010,07,09,04,57,17.70
2010,07,09,04,58,17.70
2010,07,09,04,59,17.70
2010,07,09,05,00,17.70
2010,07,09,05,01,17.70
2010,07,09,05,02,17.70
2010,07,09,05,03,17.70
2010,07,09,05,04,17.70
2010,07,09,05,05,17.70
2010,07,09,05,06,17.70
2010,07,09,05,07,17.70
2010,07,09,05,08,17.70
2010,07,09,05,09,17.70
2010,07,09,05,10,17.70
2010,07,09,05,11,17.70
2010,07,09,05,12,17.70
2010,07,09,05,13,17.70
2010,07,09,05,14,17.70
2010,07,09,05,15,17.70
2010,07,09,05,16,17.70
2010,07,09,05,17,17.70
2010,07,09,05,18,17.70
2010,07,09,05,19,17.70
2010,07,09,05,20,17.70
2010,07,09,05,21,17.70
2010,07,09,05,22,17.70
2010,07,09,05,23,17.70
2010,07,09,05,24,17.70
2010,07,09,05,25,17.70
2010,07,09,05,26,17.70
2010,07,09,05,27,17.70
2010,07,09,05,28,17.60
2010,07,09,05,29,17.60
2010,07,09,05,30,17.60
2010,07,09,05,31,17.60
2010,07,09,05,32,17.60
2010,07,09,05,33,17.50
2010,07,09,05,34,17.50
2010,07,09,05,35,17.50
2010,07,09,05,36,17.50
2010,07,09,05,37,17.40
2010,07,09,05,38,17.40
2010,07,09,05,39,17.40
2010,07,09,05,40,17.50
2010,07,09,05,41,17.40
2010,07,09,05,42,17.40
2010,07,09,05,43,17.40
2010,07,09,05,44,17.40
2010,07,09,05,45,17.40
2010,07,09,05,46,17.50
2010,07,09,05,47,17.50
2010,07,09,05,48,17.60
2010,07,09,05,49,17.60
2010,07,09,05,50,17.70
2010,07,09,05,51,17.70
2010,07,09,05,52,17.80
2010,07,09,05,53,17.80
2010,07,09,05,54,17.80
2010,07,09,05,55,17.80
2010,07,09,05,56,17.90
2010,07,09,05,57,17.90
2010,07,09,05,58,17.90
2010,07,09,05,59,17.90
2010,07,09,06,00,18.00
2010,07,09,06,01,18.00
2010,07,09,06,02,18.00
2010,07,09,06,03,18.00
2010,07,09,06,04,18.00
2010,07,09,06,05,18.00
2010,07,09,06,06,18.00
2010,07,09,06,07,18.00
2010,07,09,06,08,17.90
2010,07,09,06,09,17.90
2010,07,09,06,10,17.90
2010,07,09,06,11,17.90
2010,07,09,06,12,17.90
2010,07,09,06,13,17.90
2010,07,09,06,14,17.90
2010,07,09,06,15,17.90
2010,07,09,06,16,17.90
2010,07,09,06,17,17.90
2010,07,09,06,18,18.00
2010,07,09,06,19,18.00
2010,07,09,06,20,18.00
2010,07,09,06,21,18.00
2010,07,09,06,22,18.10
2010,07,09,06,23,18.10
2010,07,09,06,24,18.10
2010,07,09,06,25,18.10
2010,07,09,06,26,18.10
2010,07,09,06,27,18.20
2010,07,09,06,28,18.20
2010,07,09,06,29,18.20
2010,07,09,06,30,18.20
2010,07,09,06,31,18.20
2010,07,09,06,32,18.30
2010,07,09,06,33,18.30
2010,07,09,06,34,18.40
2010,07,09,06,35,18.40
2010,07,09,06,36,18.40
2010,07,09,06,37,18.50
2010,07,09,06,38,18.50
2010,07,09,06,39,18.60
2010,07,09,06,40,18.70
2010,07,09,06,41,18.80
2010,07,09,06,42,18.90
2010,07,09,06,43,19.00
2010,07,09,06,44,19.10
2010,07,09,06,45,19.20
2010,07,09,06,46,19.30
2010,07,09,06,47,19.40
2010,07,09,06,48,19.50
2010,07,09,06,49,19.60
2010,07,09,06,50,19.60
2010,07,09,06,51,19.70
2010,07,09,06,52,19.70
2010,07,09,06,53,19.70
2010,07,09,06,54,19.70
2010,07,09,06,55,19.70
2010,07,09,06,56,19.70
2010,07,09,06,57,19.70
2010,07,09,06,58,19.70
2010,07,09,06,59,19.70
2010,07,09,07,00,19.70
2010,07,09,07,01,19.70
2010,07,09,07,02,19.80
2010,07,09,07,03,19.80
2010,07,09,07,04,19.80
2010,07,09,07,05,19.80
2010,07,09,07,06,19.90
2010,07,09,07,07,19.90
2010,07,09,07,08,20.00
2010,07,09,07,09,20.00
2010,07,09,07,10,20.10
2010,07,09,07,11,20.20
2010,07,09,07,12,20.30
2010,07,09,07,13,20.30
2010,07,09,07,14,20.30
2010,07,09,07,15,20.40
2010,07,09,07,16,20.40
2010,07,09,07,17,20.50
2010,07,09,07,18,20.50
2010,07,09,07,19,20.50
2010,07,09,07,20,20.60
2010,07,09,07,21,20.60
2010,07,09,07,22,20.70
2010,07,09,07,23,20.70
2010,07,09,07,24,20.70
2010,07,09,07,25,20.80
2010,07,09,07,26,20.80
2010,07,09,07,27,20.80
2010,07,09,07,28,20.80
2010,07,09,07,29,20.90
2010,07,09,07,30,20.90
2010,07,09,07,31,20.90
2010,07,09,07,32,21.00
2010,07,09,07,33,21.10
2010,07,09,07,34,21.20
2010,07,09,07,35,21.30
2010,07,09,07,36,21.40
2010,07,09,07,37,21.50
2010,07,09,07,38,21.60
2010,07,09,07,39,21.70
2010,07,09,07,40,21.80
2010,07,09,07,41,21.90
2010,07,09,07,42,22.10
2010,07,09,07,43,22.20
2010,07,09,07,44,22.30
2010,07,09,07,45,22.40
2010,07,09,07,46,22.50
2010,07,09,07,47,22.60
2010,07,09,07,48,22.70
2010,07,09,07,49,22.70
2010,07,09,07,50,22.80
2010,07,09,07,51,22.90
2010,07,09,07,52,23.00
2010,07,09,07,53,23.10
2010,07,09,07,54,23.20
2010,07,09,07,55,23.30
2010,07,09,07,56,23.30
2010,07,09,07,57,23.30
2010,07,09,07,58,23.30
2010,07,09,07,59,23.30
2010,07,09,08,00,23.30
2010,07,09,08,01,23.30
2010,07,09,08,02,23.20
2010,07,09,08,03,23.20
2010,07,09,08,04,23.10
2010,07,09,08,05,23.20
2010,07,09,08,06,23.20
2010,07,09,08,07,23.30
2010,07,09,08,08,23.40
2010,07,09,08,09,23.50
2010,07,09,08,10,23.50
2010,07,09,08,11,23.60
2010,07,09,08,12,23.70
2010,07,09,08,13,23.80
2010,07,09,08,14,23.80
2010,07,09,08,15,23.90
2010,07,09,08,16,23.90
2010,07,09,08,17,23.90
2010,07,09,08,18,23.90
2010,07,09,08,19,23.90
2010,07,09,08,20,23.90
2010,07,09,08,21,23.90
2010,07,09,08,22,24.00
2010,07,09,08,23,24.00
2010,07,09,08,24,24.00
2010,07,09,08,25,24.00
2010,07,09,08,26,24.00
2010,07,09,08,27,24.00
2010,07,09,08,28,24.00
2010,07,09,08,29,24.00
2010,07,09,08,30,24.00
2010,07,09,08,31,24.00
2010,07,09,08,32,24.00
2010,07,09,08,33,24.00
2010,07,09,08,34,24.00
2010,07,09,08,35,24.10
2010,07,09,08,36,24.10
2010,07,09,08,37,24.10
2010,07,09,08,38,24.10
2010,07,09,08,39,24.10
2010,07,09,08,40,24.10
2010,07,09,08,41,24.10
2010,07,09,08,42,24.10
2010,07,09,08,43,24.20
2010,07,09,08,44,24.20
2010,07,09,08,45,24.20
2010,07,09,08,46,24.20
2010,07,09,08,47,24.20
2010,07,09,08,48,24.20
2010,07,09,08,49,24.20
2010,07,09,08,50,24.20
2010,07,09,08,51,24.30
2010,07,09,08,52,24.30
2010,07,09,08,53,24.30
2010,07,09,08,54,24.40
2010,07,09,08,55,24.40
2010,07,09,08,56,24.40
2010,07,09,08,57,24.40
2010,07,09,08,58,24.40
2010,07,09,08,59,24.40
2010,07,09,09,00,24.40
2010,07,09,09,01,24.40
2010,07,09,09,02,24.40
2010,07,09,09,03,24.40
2010,07,09,09,04,24.50
2010,07,09,09,05,24.50
2010,07,09,09,06,24.60
2010,07,09,09,07,24.70
2010,07,09,09,08,24.70
2010,07,09,09,09,24.80
2010,07,09,09,10,24.80
2010,07,09,09,11,24.80
2010,07,09,09,12,24.80
2010,07,09,09,13,24.80
2010,07,09,09,14,24.80
2010,07,09,09,15,24.70
2010,07,09,09,16,24.60
2010,07,09,09,17,24.60
2010,07,09,09,18,24.60
2010,07,09,09,19,24.70
2010,07,09,09,20,24.70
2010,07,09,09,21,24.70
2010,07,09,09,22,24.80
2010,07,09,09,23,24.80
2010,07,09,09,24,24.80
2010,07,09,09,25,24.80
2010,07,09,09,26,24.80
2010,07,09,09,27,24.70
2010,07,09,09,28,24.80
2010,07,09,09,29,24.80
2010,07,09,09,30,24.80
2010,07,09,09,31,24.90
2010,07,09,09,32,24.90
2010,07,09,09,33,25.00
2010,07,09,09,34,25.00
2010,07,09,09,35,25.10
2010,07,09,09,36,25.20
2010,07,09,09,37,25.30
2010,07,09,09,38,25.40
2010,07,09,09,39,25.40
2010,07,09,09,40,25.50
2010,07,09,09,41,25.60
2010,07,09,09,42,25.70
2010,07,09,09,43,25.70
2010,07,09,09,44,25.70
2010,07,09,09,45,25.80
2010,07,09,09,46,25.80
2010,07,09,09,47,25.70
2010,07,09,09,48,25.70
2010,07,09,09,49,25.70
2010,07,09,09,50,25.60
2010,07,09,09,51,25.60
2010,07,09,09,52,25.60
2010,07,09,09,53,25.50
2010,07,09,09,54,25.40
2010,07,09,09,55,25.30
2010,07,09,09,56,25.30
2010,07,09,09,57,25.30
2010,07,09,09,58,25.30
2010,07,09,09,59,25.30
2010,07,09,10,00,25.30
2010,07,09,10,01,25.20
2010,07,09,10,02,25.20
2010,07,09,10,03,25.30
2010,07,09,10,04,25.40
2010,07,09,10,05,25.50
2010,07,09,10,06,25.60
2010,07,09,10,07,25.60
2010,07,09,10,08,25.70
2010,07,09,10,09,25.80
2010,07,09,10,10,25.80
2010,07,09,10,11,25.70
2010,07,09,10,12,25.70
2010,07,09,10,13,25.60
2010,07,09,10,14,25.60
2010,07,09,10,15,25.60
2010,07,09,10,16,25.60
2010,07,09,10,17,25.70
2010,07,09,10,18,25.70
2010,07,09,10,19,25.60
2010,07,09,10,20,25.60
2010,07,09,10,21,25.70
2010,07,09,10,22,25.50
2010,07,09,10,23,25.40
2010,07,09,10,24,25.40
2010,07,09,10,25,25.30
2010,07,09,10,26,25.30
2010,07,09,10,27,25.40
2010,07,09,10,28,25.30
2010,07,09,10,29,25.30
2010,07,09,10,30,25.30
2010,07,09,10,31,25.30
2010,07,09,10,32,25.30
2010,07,09,10,33,25.40
2010,07,09,10,34,25.40
2010,07,09,10,35,25.50
2010,07,09,10,36,25.60
2010,07,09,10,37,25.70
2010,07,09,10,38,25.70
2010,07,09,10,39,25.70
2010,07,09,10,40,25.70
2010,07,09,10,41,25.80
2010,07,09,10,42,25.90
2010,07,09,10,43,25.90
2010,07,09,10,44,26.00
2010,07,09,10,45,26.10
2010,07,09,10,46,26.20
2010,07,09,10,47,26.20
2010,07,09,10,48,26.20
2010,07,09,10,49,26.20
2010,07,09,10,50,26.20
2010,07,09,10,51,26.20
2010,07,09,10,52,26.20
2010,07,09,10,53,26.20
2010,07,09,10,54,26.20
2010,07,09,10,55,26.30
2010,07,09,10,56,26.30
2010,07,09,10,57,26.30
2010,07,09,10,58,26.30
2010,07,09,10,59,26.40
2010,07,09,11,00,26.40
2010,07,09,11,01,26.30
2010,07,09,11,02,26.30
2010,07,09,11,03,26.30
2010,07,09,11,04,26.30
2010,07,09,11,05,26.30
2010,07,09,11,06,26.30
2010,07,09,11,07,26.40
2010,07,09,11,08,26.40
2010,07,09,11,09,26.40
2010,07,09,11,10,26.40
2010,07,09,11,11,26.40
2010,07,09,11,12,26.40
2010,07,09,11,13,26.30
2010,07,09,11,14,26.30
2010,07,09,11,15,26.20
2010,07,09,11,16,26.30
2010,07,09,11,17,26.30
2010,07,09,11,18,26.40
2010,07,09,11,19,26.40
2010,07,09,11,20,26.40
2010,07,09,11,21,26.30
2010,07,09,11,22,26.30
2010,07,09,11,23,26.30
2010,07,09,11,24,26.30
2010,07,09,11,25,26.30
2010,07,09,11,26,26.30
2010,07,09,11,27,26.30
2010,07,09,11,28,26.30
2010,07,09,11,29,26.20
2010,07,09,11,30,26.10
2010,07,09,11,31,26.10
2010,07,09,11,32,26.20
2010,07,09,11,33,26.20
2010,07,09,11,34,26.30
2010,07,09,11,35,26.30
2010,07,09,11,36,26.40
2010,07,09,11,37,26.40
2010,07,09,11,38,26.50
2010,07,09,11,39,26.60
2010,07,09,11,40,26.70
2010,07,09,11,41,26.70
2010,07,09,11,42,26.70
2010,07,09,11,43,26.80
2010,07,09,11,44,26.80
2010,07,09,11,45,26.90
2010,07,09,11,46,27.00
2010,07,09,11,47,27.10
2010,07,09,11,48,27.10
2010,07,09,11,49,27.10
2010,07,09,11,50,27.20
2010,07,09,11,51,27.20
2010,07,09,11,52,27.30
2010,07,09,11,53,27.40
2010,07,09,11,54,27.50
2010,07,09,11,55,27.60
2010,07,09,11,56,27.60
2010,07,09,11,57,27.70
2010,07,09,11,58,27.70
2010,07,09,11,59,27.70
2010,07,09,12,00,27.80
2010,07,09,12,01,27.80
2010,07,09,12,02,27.90
2010,07,09,12,03,27.90
2010,07,09,12,04,28.00
2010,07,09,12,05,28.00
2010,07,09,12,06,28.00
2010,07,09,12,07,28.10
2010,07,09,12,08,28.00
2010,07,09,12,09,28.00
2010,07,09,12,10,28.00
2010,07,09,12,11,28.00
2010,07,09,12,12,28.10
2010,07,09,12,13,28.10
2010,07,09,12,14,28.10
2010,07,09,12,15,28.10
2010,07,09,12,16,28.20
2010,07,09,12,17,28.10
2010,07,09,12,18,28.10
2010,07,09,12,19,28.10
2010,07,09,12,20,28.10
2010,07,09,12,21,28.10
2010,07,09,12,22,28.10
2010,07,09,12,23,28.10
2010,07,09,12,24,28.00
2010,07,09,12,25,28.00
2010,07,09,12,26,28.00
2010,07,09,12,27,28.10
2010,07,09,12,28,28.20
2010,07,09,12,29,28.20
2010,07,09,12,30,28.30
2010,07,09,12,31,28.30
2010,07,09,12,32,28.30
2010,07,09,12,33,28.30
2010,07,09,12,34,28.40
2010,07,09,12,35,28.50
2010,07,09,12,36,28.60
2010,07,09,12,37,28.60
2010,07,09,12,38,28.70
2010,07,09,12,39,28.90
2010,07,09,12,40,29.00
2010,07,09,12,41,29.00
2010,07,09,12,42,29.00
2010,07,09,12,43,28.90
2010,07,09,12,44,29.00
2010,07,09,12,45,29.10
2010,07,09,12,46,29.10
2010,07,09,12,47,29.20
2010,07,09,12,48,29.20
2010,07,09,12,49,29.00
2010,07,09,12,50,28.80
2010,07,09,12,51,28.60
2010,07,09,12,52,28.50
2010,07,09,12,53,28.40
2010,07,09,12,54,28.30
2010,07,09,12,55,28.20
2010,07,09,12,56,28.20
2010,07,09,12,57,28.10
2010,07,09,12,58,28.20
2010,07,09,12,59,28.20
2010,07,09,13,00,28.30
2010,07,09,13,01,28.30
2010,07,09,13,02,28.30
2010,07,09,13,03,28.30
2010,07,09,13,04,28.30
2010,07,09,13,05,28.30
2010,07,09,13,06,28.40
2010,07,09,13,07,28.50
2010,07,09,13,08,28.60
2010,07,09,13,09,28.60
2010,07,09,13,10,28.60
2010,07,09,13,11,28.60
2010,07,09,13,12,28.60
2010,07,09,13,13,28.60
2010,07,09,13,14,28.70
2010,07,09,13,15,28.70
2010,07,09,13,16,28.70
2010,07,09,13,17,28.70
2010,07,09,13,18,28.70
2010,07,09,13,19,28.70
2010,07,09,13,20,28.80
2010,07,09,13,21,28.80
2010,07,09,13,22,28.90
2010,07,09,13,23,29.00
2010,07,09,13,24,29.00
2010,07,09,13,25,29.00
2010,07,09,13,26,28.90
2010,07,09,13,27,28.90
2010,07,09,13,28,29.00
2010,07,09,13,29,29.00
2010,07,09,13,30,29.20
2010,07,09,13,31,29.30
2010,07,09,13,32,29.40
2010,07,09,13,33,29.50
2010,07,09,13,34,29.60
2010,07,09,13,35,29.60
2010,07,09,13,36,29.60
2010,07,09,13,37,29.60
2010,07,09,13,38,29.50
2010,07,09,13,39,29.50
2010,07,09,13,40,29.40
2010,07,09,13,41,29.40
2010,07,09,13,42,29.40
2010,07,09,13,43,29.30
2010,07,09,13,44,29.30
2010,07,09,13,45,29.30
2010,07,09,13,46,29.30
2010,07,09,13,47,29.30
2010,07,09,13,48,29.20
2010,07,09,13,49,29.10
2010,07,09,13,50,29.10
2010,07,09,13,51,29.10
2010,07,09,13,52,29.10
2010,07,09,13,53,29.10
2010,07,09,13,54,29.10
2010,07,09,13,55,29.10
2010,07,09,13,56,29.10
2010,07,09,13,57,29.10
2010,07,09,13,58,29.10
2010,07,09,13,59,29.10
2010,07,09,14,00,29.00
2010,07,09,14,01,28.90
2010,07,09,14,02,28.90
2010,07,09,14,03,28.90
2010,07,09,14,04,28.80
2010,07,09,14,05,28.90
2010,07,09,14,06,28.90
2010,07,09,14,07,29.00
2010,07,09,14,08,29.00
2010,07,09,14,09,29.00
2010,07,09,14,10,28.80
2010,07,09,14,11,28.80
2010,07,09,14,12,28.80
2010,07,09,14,13,28.70
2010,07,09,14,14,28.70
2010,07,09,14,15,28.70
2010,07,09,14,16,28.70
2010,07,09,14,17,28.70
2010,07,09,14,18,28.70
2010,07,09,14,19,28.70
2010,07,09,14,20,28.70
2010,07,09,14,21,28.70
2010,07,09,14,22,28.70
2010,07,09,14,23,28.70
2010,07,09,14,24,28.70
2010,07,09,14,25,28.70
2010,07,09,14,26,28.70
2010,07,09,14,27,28.70
2010,07,09,14,28,28.70
2010,07,09,14,29,28.60
2010,07,09,14,30,28.60
2010,07,09,14,31,28.50
2010,07,09,14,32,28.50
2010,07,09,14,33,28.40
2010,07,09,14,34,28.30
2010,07,09,14,35,28.30
2010,07,09,14,36,28.20
2010,07,09,14,37,28.20
2010,07,09,14,38,28.10
2010,07,09,14,39,28.00
2010,07,09,14,40,28.00
2010,07,09,14,41,27.90
2010,07,09,14,42,27.80
2010,07,09,14,43,27.80
2010,07,09,14,44,27.70
2010,07,09,14,45,27.70
2010,07,09,14,46,27.70
2010,07,09,14,47,27.70
2010,07,09,14,48,27.70
2010,07,09,14,49,27.70
2010,07,09,14,50,27.70
2010,07,09,14,51,27.80
2010,07,09,14,52,27.80
2010,07,09,14,53,27.80
2010,07,09,14,54,27.80
2010,07,09,14,55,27.80
2010,07,09,14,56,27.80
2010,07,09,14,57,27.70
2010,07,09,14,58,27.70
2010,07,09,14,59,27.60
2010,07,09,15,00,27.60
2010,07,09,15,01,27.50
2010,07,09,15,02,27.40
2010,07,09,15,03,27.30
2010,07,09,15,04,27.30
2010,07,09,15,05,27.30
2010,07,09,15,06,27.30
2010,07,09,15,07,27.30
2010,07,09,15,08,27.30
2010,07,09,15,09,27.20
2010,07,09,15,10,27.20
2010,07,09,15,11,27.10
2010,07,09,15,12,27.10
2010,07,09,15,13,27.10
2010,07,09,15,14,27.10
2010,07,09,15,15,27.00
2010,07,09,15,16,26.90
2010,07,09,15,17,26.90
2010,07,09,15,18,26.90
2010,07,09,15,19,26.80
2010,07,09,15,20,26.80
2010,07,09,15,21,26.80
2010,07,09,15,22,26.60
2010,07,09,15,23,26.50
2010,07,09,15,24,26.40
2010,07,09,15,25,26.30
2010,07,09,15,26,26.30
2010,07,09,15,27,26.30
2010,07,09,15,28,26.20
2010,07,09,15,29,26.30
2010,07,09,15,30,26.30
2010,07,09,15,31,26.30
2010,07,09,15,32,26.30
2010,07,09,15,33,26.30
2010,07,09,15,34,26.30
2010,07,09,15,35,26.30
2010,07,09,15,36,26.30
2010,07,09,15,37,26.30
2010,07,09,15,38,26.30
2010,07,09,15,39,26.30
2010,07,09,15,40,26.30
2010,07,09,15,41,26.30
2010,07,09,15,42,26.30
2010,07,09,15,43,26.30
2010,07,09,15,44,26.30
2010,07,09,15,45,26.30
2010,07,09,15,46,26.20
2010,07,09,15,47,26.20
2010,07,09,15,48,26.20
2010,07,09,15,49,26.20
2010,07,09,15,50,26.20
2010,07,09,15,51,26.30
2010,07,09,15,52,26.30
2010,07,09,15,53,26.30
2010,07,09,15,54,26.30
2010,07,09,15,55,26.30
2010,07,09,15,56,26.30
2010,07,09,15,57,26.30
2010,07,09,15,58,26.30
2010,07,09,15,59,26.30
2010,07,09,16,00,26.30
2010,07,09,16,01,26.20
2010,07,09,16,02,26.20
2010,07,09,16,03,26.20
2010,07,09,16,04,26.20
2010,07,09,16,05,26.10
2010,07,09,16,06,26.10
2010,07,09,16,07,26.00
2010,07,09,16,08,26.00
2010,07,09,16,09,25.90
2010,07,09,16,10,25.90
2010,07,09,16,11,25.90
2010,07,09,16,12,25.90
2010,07,09,16,13,25.90
2010,07,09,16,14,25.90
2010,07,09,16,15,25.90
2010,07,09,16,16,25.90
2010,07,09,16,17,25.90
2010,07,09,16,18,25.90
2010,07,09,16,19,25.90
2010,07,09,16,20,25.90
2010,07,09,16,21,25.90
2010,07,09,16,22,25.80
2010,07,09,16,23,25.80
2010,07,09,16,24,25.80
2010,07,09,16,25,25.80
2010,07,09,16,26,25.80
2010,07,09,16,27,25.80
2010,07,09,16,28,25.80
2010,07,09,16,29,25.80
2010,07,09,16,30,25.80
2010,07,09,16,31,25.90
2010,07,09,16,32,25.90
2010,07,09,16,33,25.90
2010,07,09,16,34,25.90
2010,07,09,16,35,25.90
2010,07,09,16,36,25.90
2010,07,09,16,37,25.90
2010,07,09,16,38,25.90
2010,07,09,16,39,25.90
2010,07,09,16,40,25.90
2010,07,09,16,41,25.90
2010,07,09,16,42,25.90
2010,07,09,16,43,25.90
2010,07,09,16,44,25.90
2010,07,09,16,45,25.90
2010,07,09,16,46,25.90
2010,07,09,16,47,25.90
2010,07,09,16,48,26.00
2010,07,09,16,49,26.00
2010,07,09,16,50,26.10
2010,07,09,16,51,26.10
2010,07,09,16,52,26.10
2010,07,09,16,53,26.10
2010,07,09,16,54,26.10
2010,07,09,16,55,26.10
2010,07,09,16,56,26.10
2010,07,09,16,57,26.00
2010,07,09,16,58,25.90
2010,07,09,16,59,25.90
2010,07,09,17,00,25.90
2010,07,09,17,01,25.90
2010,07,09,17,02,25.80
2010,07,09,17,03,25.80
2010,07,09,17,04,25.70
2010,07,09,17,05,25.70
2010,07,09,17,06,25.60
2010,07,09,17,07,25.60
2010,07,09,17,08,25.50
2010,07,09,17,09,25.40
2010,07,09,17,10,25.40
2010,07,09,17,11,25.40
2010,07,09,17,12,25.30
2010,07,09,17,13,25.30
2010,07,09,17,14,25.30
2010,07,09,17,15,25.30
2010,07,09,17,16,25.30
2010,07,09,17,17,25.30
2010,07,09,17,18,25.30
2010,07,09,17,19,25.30